Location: Cadenet
(43.7345°N, 5.3750°E)
Time: 06:29:21
(UTC+00:00)

Cosmos 1633 - Pass Details

Date: 18 February 2020
Orbit: 464 x 482 km, 82.5° (Epoch: 28 March)

Event Time Altitude Azimuth Distance (km) Brightness Sun altitude
Rises 05:01:32 0° 354° (N) 2,556 6.2 -17.3°
Reaches altitude 10° 05:03:39 10° 357° (N) 1,672 5.2 -16.9°
Maximum altitude 05:07:18 67° 80° (E) 529 2.9 -16.3°
Drops below altitude 10° 05:10:54 10° 164° (SSE) 1,656 5.5 -15.6°
Sets 05:13:00 0° 167° (SSE) 2,529 6.4 -15.2°
